Miscellaneous Local Product
Issued by NWS North Platte, NE

Home | Current Version | Previous Version | Graphics & Text | Print | Product List | Glossary On
Versions: 1 2 3 4 5 6 7 8 9 10 11 12 13 14 15 16 17 18 19 20 21 22 23 24 25 26 27 28 29 30 31 32 33 34 35 36 37 38 39 40 41 42 43 44 45 46 47 48 49 50
000
AXUS43 KLBF 221010
MISLBF


WESTERN AND NORTH CENTRAL NEBRASKA HOURLY WEATHER ROUNDUP
NATIONAL WEATHER SERVICE NORTH PLATTE NE
500 AM CDT SUN APR 22 2018

NOTE: "FAIR" INDICATES FEW OR NO CLOUDS BELOW 12,000 FEET WITH NO
SIGNIFICANT WEATHER AND/OR OBSTRUCTIONS TO VISIBILITY.

NOTE: STATIONS NOT REPORTING VARIABLES SUCH AS SKY/WEATHER OR
PRESSURE ARE PROVIDED BY RAWS AND APRS NETWORKS AND ARE NOT UNDER
NATIONAL WEATHER SERVICE QUALITY CONTROL.

...OBSERVATIONS IN AND NEAR THE EASTERN PANHANDLE OF NEBRASKA...

CITY           SKY/WX    TMP DP  RH WIND       PRES   REMARKS
PINE RIDGE     FAIR      36  35  96 S9        30.14F WCI  29
GORDON         PTSUNNY   33  32  96 SW3       30.17S
CHADRON        FAIR      32  30  92 S3        30.15S
ALLIANCE       CLOUDY    36  36 100 S9        30.16S WCI  29
SIDNEY         CLOUDY    37  33  85 S9        30.17S WCI  30
CRESCENT LAKE    N/A     35  35  99 S6          N/A  WCI  30
$$

...OBSERVATIONS IN NORTHERN NEBRASKA AND FAR SOUTHERN SOUTH DAKOTA...

CITY           SKY/WX    TMP DP  RH WIND       PRES   REMARKS
WINNER         MOCLDY    39  33  79 S5        30.23R
VALENTINE      CLOUDY    41  37  86 S8        30.22R
AINSWORTH      MOCLDY    36  35  96 CALM      30.23R
O`NEILL        FAIR      41  38  91 CALM      30.25R
THEDFORD       CLOUDY    40  37  92 S3        30.22R
BROKEN BOW     CLOUDY    38  35  89 CALM      30.22R
ORD            CLOUDY    40  38  93 NW5       30.22S
ALBION         PTCLDY    35  34  94 NW5       30.24S WCI  31
VALENTINE NWR    N/A     38  36  94 S3          N/A
HALSEY           N/A     38  38 100 SW5         N/A  WCI  34
BUTTE            N/A     39  36  88 CALM        N/A
CHAMBERS         N/A     37  34  88 CALM        N/A
EWING            N/A     38  34  85 CALM        N/A
$$

...OBSERVATIONS IN SOUTHWEST NEBRASKA AND FAR NORTHEAST COLORADO...

CITY           SKY/WX    TMP DP  RH WIND       PRES   REMARKS
WRAY           CLOUDY    36  36 100 CALM      30.21R FOG
HOLYOKE        CLOUDY    37  36  93 SE5       30.20S FOG     WCI  34
IMPERIAL       CLOUDY    39  39 100 S7        30.21S WCI  34
OGALLALA       CLOUDY    37  37  98 CALM      30.20F FOG
NORTH PLATTE   CLOUDY    40  38  93 CALM      30.22S FOG
MCCOOK         CLOUDY    39  39 100 NW3       30.22R FOG
LEXINGTON      FAIR      39  37  92 E6        30.22S WCI  35
STAPLETON        N/A     38  36  93 CALM        N/A
GOTHENBURG       N/A     40  35  84 CALM        N/A
CALLAWAY         N/A     39  37  94 W3          N/A
$$

...OBSERVATIONS IN CENTRAL LINCOLN COUNTY AREA...

CITY           SKY/WX    TMP DP  RH WIND       PRES   REMARKS
N.P. AIRPORT   CLOUDY    40  38  93 CALM      30.22S FOG
N.P. DOWNTOWN    N/A     39  37  94 CALM        N/A
N.P. SOUTHEAST   N/A     39  37  93 CALM        N/A
N.P. HILLCREST   N/A     39  38  97 CALM        N/A
$$

...OBSERVATIONS ACROSS THE ROCKIES AND WESTERN HIGH PLAINS...

CITY           SKY/WX    TMP DP  RH WIND       PRES   REMARKS
RAPID CITY     FAIR      34  31  88 SE7       30.11R WCI  28
SCOTTSBLUFF    FAIR      33  33 100 E8        30.15S WCI  26
CHEYENNE       FOG       32  32 100 W8        30.14S VSB 1/4 WCI  25
DENVER         FAIR      32  29  88 SE7       30.14F WCI  26
BERTHOUD PASS  CLOUDY    23  12  63 MISG      30.33S
MONARCH PASS     N/A     23  21  93 W22G28    30.43F WCI   8
ASPEN          FAIR      28  25  88 S3        30.28R
STEAMBOAT      FAIR      30  30 100 CALM      30.25R
LARAMIE        FAIR      28  27  96 SE6       30.17R WCI  22
CASPER         FAIR      29  28  96 CALM      30.13R FOG
$$

...OBSERVATIONS ACROSS THE NORTHERN PLAINS...

CITY           SKY/WX    TMP DP  RH WIND       PRES   REMARKS
BISMARCK       FAIR      37  34  89 CALM      30.19R
FARGO          FAIR      36  32  85 S7        30.28R WCI  30
PIERRE         FAIR      33  32  96 SE6       30.21R WCI  28
SIOUX FALLS    CLOUDY    38  34  85 E3        30.27R
$$

...OBSERVATIONS ACROSS THE CENTRAL AND SOUTHERN PLAINS...

CITY           SKY/WX    TMP DP  RH WIND       PRES   REMARKS
OMAHA          CLOUDY    48  31  51 N6        30.21F
GRAND ISLAND   CLOUDY    38  36  92 N6        30.23R FOG     WCI  33
KANSAS CITY    LGT RAIN  52  33  48 NE12      30.10S
WICHITA        LGT RAIN  45  44  97 NW16      30.08S
DODGE CITY     CLOUDY    41  39  93 N8        30.19R FOG
OKLAHOMA CITY  PTCLDY    44  41  89 N14       30.06F
DALLAS         CLOUDY    53  48  83 NW12      30.04S
AMARILLO       CLOUDY    42  39  89 NW8       30.20R
$$




USA.gov is the U.S. government's official web portal to all federal, state and local government web resources and services.